GSAT-8

Last updated on Sat Oct 25 2025 00:02:49 GMT+0000 (Coordinated Universal Time)

1 37605U 11022A 25297.70123671 .00000097 00000+0 00000+0 0 9993 2 37605 1.5180 84.7553 0007483 162.6167 93.5324 1.00271661 50859
UTC large
Height (km)
Speed (km/s)
/
Latitude / Longitude
Inclination (degrees)
Orbital Period (minutes)
Azimuth
Elevation
Range (km)
Doppler Factor

Next 0 passes for location: London (51.5072 / 0.1276)

Sorry there are no passes over London.